| time (UTC) | temp F | wind direction | speed knots | gust knots | rain 1hr in | rain 24hr in | rain mn in | humidity % | barometer mb |
| 20260507024528 | 49 | 297 | 0.0 | 3.5 | 0.00 | 0.00 | 0.00 | 72 | 1023.6 |
| 20260507024010 | 49 | 293 | 1.7 | 3.5 | 0.00 | 0.00 | 0.00 | 71 | 1023.7 |
| 20260507023511 | 49 | 305 | 1.7 | 2.6 | 0.00 | 0.00 | 0.00 | 71 | 1023.7 |
| 20260507023026 | 50 | 301 | 0.9 | 3.5 | 0.00 | 0.00 | 0.00 | 70 | 1023.7 |
| 20260507022509 | 50 | 300 | 1.7 | 3.5 | 0.00 | 0.00 | 0.00 | 69 | 1023.6 |
| 20260507022008 | 49 | 302 | 1.7 | 3.5 | 0.00 | 0.00 | 0.00 | 69 | 1023.8 |
| 20260507021526 | 49 | 301 | 1.7 | 3.5 | 0.00 | 0.00 | 0.00 | 69 | 1023.7 |
| 20260507021011 | 49 | 302 | 1.7 | 3.5 | 0.00 | 0.00 | 0.00 | 69 | 1023.9 |
| 20260507020508 | 49 | 301 | 1.7 | 3.5 | 0.00 | 0.00 | 0.00 | 70 | 1023.7 |
| 20260507020031 | 50 | 274 | 1.7 | 3.5 | 0.00 | 0.00 | 0.00 | 69 | 1023.7 |
| 20260507015513 | 50 | 288 | 1.7 | 3.5 | 0.00 | 0.00 | 0.00 | 69 | 1023.6 |
| 20260507015014 | 50 | 287 | 0.9 | 3.5 | 0.00 | 0.00 | 0.00 | 68 | 1023.8 |
| 20260507014527 | 50 | 290 | 1.7 | 4.3 | 0.00 | 0.00 | 0.00 | 67 | 1023.7 |
| 20260507014011 | 51 | 256 | 0.9 | 5.2 | 0.00 | 0.00 | 0.00 | 69 | 1023.8 |
| 20260507013510 | 50 | 261 | 0.9 | 2.6 | 0.00 | 0.00 | 0.00 | 68 | 1023.8 |
| 20260507013027 | 50 | 259 | 0.0 | 3.5 | 0.00 | 0.00 | 0.00 | 68 | 1023.8 |
| 20260507012011 | 51 | 279 | 0.9 | 3.5 | 0.00 | 0.00 | 0.00 | 65 | 1023.8 |
| 20260507011531 | 52 | 255 | 0.9 | 3.5 | 0.00 | 0.00 | 0.00 | 64 | 1023.8 |
| 20260507011012 | 52 | 252 | 0.9 | 3.5 | 0.00 | 0.00 | 0.00 | 64 | 1023.8 |
| 20260507010509 | 51 | 240 | 0.0 | 1.7 | 0.00 | 0.00 | 0.00 | 65 | 1023.8 |
| 20260507010038 | 51 | 244 | 0.0 | 0.9 | 0.00 | 0.00 | 0.00 | 65 | 1023.8 |
| 20260507005509 | 51 | 165 | 0.0 | 0.9 | 0.00 | 0.00 | 0.00 | 67 | 1023.7 |
| 20260507005011 | 50 | 254 | 0.0 | 3.5 | 0.00 | 0.00 | 0.00 | 69 | 1023.7 |
| 20260507004532 | 50 | 242 | 0.0 | 3.5 | 0.00 | 0.00 | 0.00 | 69 | 1023.7 |
| 20260507004011 | 50 | 252 | 0.0 | 0.9 | 0.00 | 0.00 | 0.00 | 68 | 1023.7 |
| 20260507003511 | 50 | 231 | 0.0 | 0.9 | 0.00 | 0.00 | 0.00 | 68 | 1023.7 |
| 20260507003028 | 50 | 223 | 0.0 | 1.7 | 0.00 | 0.00 | 0.00 | 70 | 1023.7 |
| 20260507002510 | 50 | 232 | 0.0 | 1.7 | 0.00 | 0.00 | 0.00 | 69 | 1023.6 |
| 20260507001530 | 50 | 214 | 0.0 | 2.6 | 0.00 | 0.00 | 0.00 | 69 | 1023.6 |
| 20260507001010 | 50 | 229 | 0.0 | 1.7 | 0.00 | 0.00 | 0.00 | 70 | 1023.5 |
| 20260507000508 | 50 | 246 | 0.0 | 1.7 | 0.00 | 0.00 | 0.00 | 70 | 1023.6 |
| 20260507000029 | 50 | 236 | 0.0 | 1.7 | 0.00 | 0.00 | 0.00 | 70 | 1023.4 |
| 20260506235513 | 51 | 234 | 0.0 | 0.9 | 0.00 | 0.00 | 0.00 | 70 | 1023.5 |
| 20260506235011 | 50 | 227 | 0.0 | 0.9 | 0.00 | 0.00 | 0.00 | 72 | 1023.4 |
| 20260506234530 | 50 | 219 | 0.0 | 0.9 | 0.00 | 0.00 | 0.00 | 72 | 1023.4 |
| 20260506234012 | 50 | 273 | 0.0 | 0.9 | 0.00 | 0.00 | 0.00 | 70 | 1023.4 |
| 20260506233514 | 50 | 260 | 0.0 | 1.7 | 0.00 | 0.00 | 0.00 | 70 | 1023.4 |
| 20260506233026 | 50 | 257 | 0.0 | 1.7 | 0.00 | 0.00 | 0.00 | 70 | 1023.3 |
| 20260506232512 | 50 | 273 | 0.0 | 1.7 | 0.00 | 0.00 | 0.00 | 70 | 1023.2 |
| 20260506231528 | 50 | 273 | 0.0 | 1.7 | 0.00 | 0.00 | 0.00 | 71 | 1023.3 |
| 20260506231013 | 50 | 246 | 0.0 | 1.7 | 0.00 | 0.00 | 0.00 | 71 | 1023.1 |
| 20260506230512 | 49 | 266 | 0.0 | 2.6 | 0.00 | 0.00 | 0.00 | 71 | 1023.1 |
| 20260506230028 | 49 | 269 | 0.0 | 2.6 | 0.00 | 0.00 | 0.00 | 70 | 1023.1 |
| 20260506225515 | 49 | 263 | 0.0 | 1.7 | 0.00 | 0.00 | 0.00 | 70 | 1023.1 |
| 20260506225012 | 49 | 267 | 0.0 | 2.6 | 0.00 | 0.00 | 0.00 | 71 | 1023.2 |
| 20260506224535 | 49 | 261 | 0.0 | 2.6 | 0.00 | 0.00 | 0.00 | 70 | 1023.2 |
| 20260506224010 | 49 | 257 | 0.0 | 2.6 | 0.00 | 0.00 | 0.00 | 69 | 1023.3 |
| 20260506223510 | 49 | 266 | 0.0 | 2.6 | 0.00 | 0.00 | 0.00 | 69 | 1023.4 |
| 20260506223027 | 50 | 257 | 0.0 | 2.6 | 0.00 | 0.00 | 0.00 | 67 | 1023.2 |
| 20260506222512 | 50 | 259 | 0.0 | 1.7 | 0.00 | 0.00 | 0.00 | 66 | 1023.2 |
| 20260506222014 | 51 | 241 | 0.0 | 1.7 | 0.00 | 0.00 | 0.00 | 65 | 1023.3 |
| 20260506221529 | 51 | 270 | 0.0 | 0.9 | 0.00 | 0.00 | 0.00 | 64 | 1023.3 |
| 20260506221010 | 51 | 259 | 0.0 | 0.9 | 0.00 | 0.00 | 0.00 | 63 | 1023.2 |
| 20260506220512 | 51 | 257 | 0.0 | 0.9 | 0.00 | 0.00 | 0.00 | 63 | 1023.2 |
| 20260506220035 | 51 | 252 | 0.0 | 0.9 | 0.00 | 0.00 | 0.00 | 63 | 1023.2 |
| 20260506215512 | 51 | 278 | 0.0 | 0.9 | 0.00 | 0.00 | 0.00 | 62 | 1023.3 |
| 20260506215011 | 51 | 242 | 0.0 | 0.9 | 0.00 | 0.00 | 0.00 | 63 | 1023.2 |
| 20260506214528 | 51 | 206 | 0.0 | 2.6 | 0.00 | 0.00 | 0.00 | 65 | 1023.3 |
| 20260506214013 | 50 | 258 | 0.0 | 2.6 | 0.00 | 0.00 | 0.00 | 65 | 1023.3 |
| 20260506213511 | 51 | 263 | 0.0 | 0.9 | 0.00 | 0.00 | 0.00 | 65 | 1023.2 |
| 20260506213029 | 50 | 261 | 0.0 | 2.6 | 0.00 | 0.00 | 0.00 | 66 | 1023.3 |
| 20260506212511 | 50 | 262 | 0.9 | 2.6 | 0.00 | 0.00 | 0.00 | 64 | 1023.2 |
| 20260506212016 | 51 | 285 | 0.0 | 1.7 | 0.00 | 0.00 | 0.00 | 64 | 1023.2 |
| 20260506211534 | 51 | 236 | 0.0 | 1.7 | 0.00 | 0.00 | 0.00 | 63 | 1023.1 |
| 20260506211013 | 51 | 257 | 0.0 | 1.7 | 0.00 | 0.00 | 0.00 | 63 | 1023.1 |
| 20260506210510 | 50 | 252 | 0.0 | 1.7 | 0.00 | 0.00 | 0.00 | 63 | 1023.1 |
| 20260506210033 | 51 | 296 | 0.0 | 0.9 | 0.00 | 0.00 | 0.00 | 63 | 1023.1 |
| 20260506205513 | 51 | 248 | 0.0 | 2.6 | 0.00 | 0.00 | 0.00 | 63 | 1023.0 |
| 20260506205011 | 51 | 265 | 0.0 | 2.6 | 0.00 | 0.00 | 0.00 | 61 | 1023.1 |
| 20260506204535 | 51 | 256 | 0.0 | 3.5 | 0.00 | 0.00 | 0.00 | 61 | 1022.9 |
| 20260506204011 | 50 | 305 | 0.0 | 4.3 | 0.00 | 0.00 | 0.00 | 59 | 1022.9 |
| 20260506203511 | 50 | 314 | 0.9 | 4.3 | 0.00 | 0.00 | 0.00 | 60 | 1022.8 |
| 20260506203031 | 51 | 294 | 1.7 | 4.3 | 0.00 | 0.00 | 0.00 | 60 | 1022.7 |
| 20260506202510 | 51 | 285 | 0.9 | 3.5 | 0.00 | 0.00 | 0.00 | 60 | 1022.7 |
| 20260506202012 | 50 | 286 | 0.0 | 4.3 | 0.00 | 0.00 | 0.00 | 61 | 1022.7 |
| 20260506201538 | 50 | 280 | 0.9 | 4.3 | 0.00 | 0.00 | 0.00 | 60 | 1022.5 |
| 20260506201012 | 51 | 299 | 0.9 | 3.5 | 0.00 | 0.00 | 0.00 | 61 | 1022.4 |
| 20260506200512 | 51 | 284 | 0.9 | 6.1 | 0.00 | 0.00 | 0.00 | 61 | 1022.5 |
| 20260506200032 | 51 | 294 | 0.0 | 4.3 | 0.00 | 0.00 | 0.00 | 63 | 1022.6 |
| 20260506195513 | 51 | 293 | 1.7 | 4.3 | 0.00 | 0.00 | 0.00 | 62 | 1022.6 |
| 20260506195011 | 50 | 290 | 0.9 | 4.3 | 0.00 | 0.00 | 0.00 | 60 | 1022.7 |
| 20260506194528 | 50 | 277 | 0.0 | 4.3 | 0.00 | 0.00 | 0.00 | 61 | 1022.7 |
| 20260506194010 | 50 | 295 | 1.7 | 4.3 | 0.00 | 0.00 | 0.00 | 62 | 1022.5 |
| 20260506193514 | 50 | 315 | 1.7 | 4.3 | 0.00 | 0.00 | 0.00 | 62 | 1022.5 |
| 20260506193031 | 50 | 306 | 1.7 | 7.8 | 0.00 | 0.00 | 0.00 | 62 | 1022.6 |
| 20260506192512 | 50 | 281 | 2.6 | 7.8 | 0.00 | 0.00 | 0.00 | 61 | 1022.4 |
| 20260506192010 | 50 | 291 | 1.7 | 6.1 | 0.00 | 0.00 | 0.00 | 62 | 1022.4 |
| 20260506191533 | 50 | 314 | 2.6 | 4.3 | 0.00 | 0.00 | 0.00 | 61 | 1022.4 |
| 20260506191013 | 50 | 276 | 0.9 | 5.2 | 0.00 | 0.00 | 0.00 | 61 | 1022.4 |
| 20260506190512 | 50 | 301 | 3.5 | 5.2 | 0.00 | 0.00 | 0.00 | 61 | 1022.3 |
| 20260506190031 | 50 | 321 | 1.7 | 7.0 | 0.00 | 0.00 | 0.00 | 63 | 1022.2 |
| 20260506185512 | 49 | 306 | 3.5 | 7.8 | 0.00 | 0.00 | 0.00 | 62 | 1022.1 |
| 20260506185013 | 50 | 309 | 2.6 | 7.8 | 0.00 | 0.00 | 0.00 | 62 | 1022.2 |
| 20260506184533 | 50 | 313 | 0.9 | 4.3 | 0.00 | 0.00 | 0.00 | 62 | 1022.1 |
| 20260506184011 | 50 | 321 | 0.0 | 1.7 | 0.00 | 0.00 | 0.00 | 62 | 1022.1 |
| 20260506183510 | 50 | 331 | 0.0 | 3.5 | 0.00 | 0.00 | 0.00 | 60 | 1022.2 |
| 20260506183032 | 51 | 348 | 0.0 | 3.5 | 0.00 | 0.00 | 0.00 | 61 | 1022.2 |
| 20260506182512 | 51 | 5 | 0.0 | 4.3 | 0.00 | 0.00 | 0.00 | 60 | 1022.1 |
| 20260506182012 | 50 | 302 | 0.9 | 3.5 | 0.00 | 0.00 | 0.00 | 60 | 1022.1 |
| 20260506181532 | 49 | 319 | 0.9 | 3.5 | 0.00 | 0.00 | 0.00 | 62 | 1022.0 |
| 20260506181013 | 48 | 326 | 0.0 | 3.5 | 0.00 | 0.00 | 0.00 | 64 | 1021.9 |
| 20260506180514 | 49 | 327 | 0.9 | 3.5 | 0.00 | 0.00 | 0.00 | 64 | 1022.0 |
| 20260506180033 | 48 | 334 | 0.0 | 7.0 | 0.00 | 0.00 | 0.00 | 64 | 1022.0 |
| 20260506175513 | 49 | 331 | 0.0 | 7.0 | 0.00 | 0.00 | 0.00 | 65 | 1022.1 |
| 20260506175012 | 48 | 322 | 2.6 | 7.0 | 0.00 | 0.00 | 0.00 | 64 | 1022.0 |
| 20260506174533 | 49 | 294 | 4.3 | 7.0 | 0.00 | 0.00 | 0.00 | 61 | 1022.0 |
| 20260506174010 | 49 | 327 | 0.9 | 5.2 | 0.00 | 0.00 | 0.00 | 63 | 1021.9 |
| 20260506173512 | 48 | 289 | 0.9 | 4.3 | 0.00 | 0.00 | 0.00 | 66 | 1021.9 |
| 20260506173031 | 48 | 285 | 0.9 | 4.3 | 0.00 | 0.00 | 0.00 | 66 | 1022.0 |
| 20260506172515 | 49 | 305 | 2.6 | 4.3 | 0.00 | 0.00 | 0.00 | 63 | 1022.1 |
| 20260506172013 | 49 | 317 | 0.0 | 3.5 | 0.00 | 0.00 | 0.00 | 66 | 1022.1 |
| 20260506171539 | 48 | 290 | 0.0 | 3.5 | 0.00 | 0.00 | 0.00 | 67 | 1021.9 |
| 20260506171011 | 47 | 298 | 1.7 | 5.2 | 0.00 | 0.00 | 0.00 | 67 | 1021.9 |
| 20260506170514 | 47 | 291 | 2.6 | 5.2 | 0.00 | 0.00 | 0.00 | 66 | 1021.9 |
| 20260506170038 | 47 | 296 | 1.7 | 4.3 | 0.00 | 0.00 | 0.00 | 67 | 1022.0 |
| 20260506165512 | 47 | 309 | 0.9 | 4.3 | 0.00 | 0.00 | 0.00 | 68 | 1022.1 |
| 20260506165012 | 47 | 314 | 0.9 | 4.3 | 0.00 | 0.00 | 0.00 | 70 | 1022.0 |
| 20260506164528 | 47 | 294 | 0.9 | 4.3 | 0.00 | 0.00 | 0.00 | 69 | 1022.0 |
| 20260506164013 | 47 | 307 | 0.9 | 4.3 | 0.00 | 0.00 | 0.00 | 70 | 1021.9 |
| 20260506163512 | 47 | 316 | 2.6 | 5.2 | 0.00 | 0.00 | 0.00 | 68 | 1022.0 |
| 20260506163035 | 47 | 313 | 1.7 | 3.5 | 0.00 | 0.00 | 0.00 | 69 | 1021.9 |
| 20260506162509 | 46 | 326 | 0.9 | 4.3 | 0.00 | 0.00 | 0.00 | 69 | 1021.8 |
| 20260506162014 | 46 | 317 | 0.9 | 4.3 | 0.00 | 0.00 | 0.00 | 69 | 1021.7 |
| 20260506161532 | 46 | 325 | 0.9 | 4.3 | 0.00 | 0.00 | 0.00 | 71 | 1021.6 |
| 20260506161013 | 46 | 309 | 1.7 | 6.1 | 0.00 | 0.00 | 0.00 | 70 | 1021.6 |
| 20260506160511 | 46 | 305 | 1.7 | 5.2 | 0.00 | 0.00 | 0.00 | 70 | 1021.6 |
| 20260506160045 | 46 | 302 | 1.7 | 7.8 | 0.00 | 0.00 | 0.00 | 71 | 1021.6 |
| 20260506155512 | 46 | 313 | 3.5 | 7.8 | 0.00 | 0.00 | 0.00 | 70 | 1021.5 |
| 20260506155012 | 46 | 326 | 2.6 | 7.0 | 0.00 | 0.00 | 0.00 | 71 | 1021.4 |
| 20260506154533 | 46 | 333 | 2.6 | 7.0 | 0.00 | 0.00 | 0.00 | 71 | 1021.4 |
| 20260506154012 | 46 | 327 | 1.7 | 5.2 | 0.00 | 0.00 | 0.00 | 71 | 1021.4 |
| 20260506153513 | 46 | 315 | 1.7 | 7.8 | 0.00 | 0.00 | 0.00 | 70 | 1021.3 |
| 20260506153031 | 46 | 320 | 3.5 | 8.7 | 0.00 | 0.00 | 0.00 | 70 | 1021.3 |
| 20260506152515 | 46 | 314 | 2.6 | 7.8 | 0.00 | 0.00 | 0.00 | 70 | 1021.3 |
| 20260506152011 | 46 | 296 | 3.5 | 7.8 | 0.00 | 0.00 | 0.00 | 69 | 1021.4 |
| 20260506151540 | 46 | 312 | 3.5 | 10.4 | 0.00 | 0.00 | 0.00 | 69 | 1021.4 |
| 20260506151014 | 46 | 297 | 2.6 | 9.6 | 0.00 | 0.00 | 0.00 | 69 | 1021.3 |
| 20260506150513 | 46 | 307 | 3.5 | 7.0 | 0.00 | 0.00 | 0.00 | 70 | 1021.3 |
| 20260506150028 | 46 | 311 | 2.6 | 7.0 | 0.00 | 0.00 | 0.00 | 71 | 1021.3 |
| 20260506145511 | 46 | 313 | 2.6 | 8.7 | 0.00 | 0.00 | 0.00 | 70 | 1021.3 |
| 20260506145013 | 46 | 311 | 3.5 | 7.8 | 0.00 | 0.00 | 0.00 | 70 | 1021.1 |
| 20260506144530 | 46 | 306 | 4.3 | 7.8 | 0.00 | 0.00 | 0.00 | 72 | 1021.1 |
| 20260506144013 | 46 | 317 | 3.5 | 8.7 | 0.00 | 0.00 | 0.00 | 72 | 1021.2 |
| 20260506143514 | 46 | 294 | 4.3 | 8.7 | 0.00 | 0.00 | 0.00 | 73 | 1021.0 |
| 20260506143032 | 46 | 298 | 3.5 | 7.0 | 0.00 | 0.00 | 0.00 | 72 | 1021.0 |
| 20260506142511 | 46 | 302 | 3.5 | 7.0 | 0.00 | 0.00 | 0.00 | 72 | 1020.9 |
| 20260506142015 | 46 | 303 | 3.5 | 5.2 | 0.00 | 0.00 | 0.00 | 72 | 1020.9 |
| 20260506141529 | 46 | 296 | 2.6 | 5.2 | 0.00 | 0.00 | 0.00 | 72 | 1020.9 |
| 20260506141011 | 46 | 321 | 3.5 | 7.0 | 0.00 | 0.00 | 0.00 | 72 | 1020.9 |
| 20260506140513 | 46 | 303 | 3.5 | 7.0 | 0.00 | 0.00 | 0.00 | 72 | 1020.8 |
| 20260506140033 | 46 | 302 | 2.6 | 7.0 | 0.00 | 0.00 | 0.00 | 72 | 1020.8 |
| 20260506135513 | 46 | 309 | 3.5 | 7.0 | 0.00 | 0.00 | 0.00 | 71 | 1020.7 |
| 20260506135013 | 46 | 317 | 3.5 | 7.0 | 0.00 | 0.00 | 0.00 | 72 | 1020.7 |
| 20260506134533 | 46 | 311 | 2.6 | 7.8 | 0.00 | 0.00 | 0.00 | 72 | 1020.6 |
| 20260506134014 | 46 | 315 | 2.6 | 7.8 | 0.00 | 0.00 | 0.00 | 71 | 1020.6 |
| 20260506133512 | 46 | 310 | 2.6 | 7.8 | 0.00 | 0.00 | 0.00 | 71 | 1020.5 |
| 20260506133036 | 46 | 290 | 2.6 | 7.8 | 0.00 | 0.00 | 0.00 | 72 | 1020.4 |
| 20260506132515 | 46 | 319 | 2.6 | 4.3 | 0.00 | 0.00 | 0.00 | 72 | 1020.3 |
| 20260506132012 | 46 | 300 | 2.6 | 4.3 | 0.00 | 0.00 | 0.00 | 72 | 1020.2 |
| 20260506131542 | 46 | 312 | 2.6 | 4.3 | 0.00 | 0.00 | 0.00 | 72 | 1020.1 |
| 20260506131016 | 46 | 300 | 1.7 | 5.2 | 0.00 | 0.00 | 0.00 | 72 | 1020.2 |
| 20260506130517 | 46 | 327 | 1.7 | 7.0 | 0.00 | 0.00 | 0.00 | 72 | 1020.2 |
| 20260506130030 | 46 | 326 | 0.9 | 4.3 | 0.00 | 0.00 | 0.00 | 72 | 1020.2 |
| 20260506125511 | 46 | 313 | 2.6 | 8.7 | 0.00 | 0.00 | 0.00 | 73 | 1020.2 |
| 20260506125016 | 46 | 306 | 3.5 | 8.7 | 0.00 | 0.00 | 0.00 | 72 | 1020.2 |
| 20260506124533 | 46 | 298 | 2.6 | 6.1 | 0.00 | 0.00 | 0.00 | 74 | 1020.3 |
| 20260506124013 | 46 | 304 | 2.6 | 5.2 | 0.00 | 0.00 | 0.00 | 76 | 1020.3 |
| 20260506123512 | 46 | 309 | 2.6 | 8.7 | 0.00 | 0.00 | 0.00 | 76 | 1020.1 |
| 20260506123040 | 46 | 304 | 3.5 | 8.7 | 0.00 | 0.00 | 0.00 | 76 | 1020.0 |
| 20260506122514 | 46 | 310 | 3.5 | 7.8 | 0.00 | 0.00 | 0.00 | 76 | 1020.1 |
| 20260506122016 | 46 | 313 | 3.5 | 6.1 | 0.00 | 0.00 | 0.00 | 76 | 1020.0 |
| 20260506121539 | 46 | 303 | 2.6 | 6.1 | 0.00 | 0.00 | 0.00 | 77 | 1020.0 |
| 20260506121014 | 46 | 286 | 1.7 | 7.0 | 0.00 | 0.00 | 0.00 | 76 | 1019.9 |
| 20260506120517 | 46 | 310 | 2.6 | 7.0 | 0.00 | 0.00 | 0.00 | 76 | 1019.9 |
| 20260506120035 | 46 | 317 | 2.6 | 7.8 | 0.00 | 0.00 | 0.00 | 76 | 1019.8 |
| 20260506115512 | 46 | 304 | 2.6 | 7.0 | 0.00 | 0.00 | 0.00 | 75 | 1019.7 |
| 20260506115013 | 46 | 302 | 3.5 | 7.0 | 0.00 | 0.00 | 0.00 | 75 | 1019.8 |
| 20260506114541 | 46 | 293 | 1.7 | 7.0 | 0.00 | 0.00 | 0.00 | 75 | 1019.8 |
| 20260506114011 | 46 | 314 | 3.5 | 7.0 | 0.00 | 0.00 | 0.00 | 75 | 1019.7 |
| 20260506113514 | 46 | 300 | 1.7 | 4.3 | 0.00 | 0.00 | 0.00 | 76 | 1019.8 |
| 20260506113035 | 46 | 307 | 1.7 | 6.1 | 0.00 | 0.00 | 0.00 | 76 | 1019.7 |
| 20260506112517 | 46 | 308 | 2.6 | 7.0 | 0.00 | 0.00 | 0.00 | 76 | 1019.6 |
| 20260506112014 | 46 | 311 | 2.6 | 7.0 | 0.00 | 0.00 | 0.00 | 76 | 1019.6 |
| 20260506111532 | 46 | 321 | 2.6 | 7.0 | 0.00 | 0.00 | 0.00 | 76 | 1019.6 |
| 20260506111015 | 46 | 313 | 2.6 | 7.0 | 0.00 | 0.00 | 0.00 | 76 | 1019.5 |
| 20260506110515 | 46 | 302 | 2.6 | 7.8 | 0.00 | 0.00 | 0.00 | 76 | 1019.5 |
| 20260506110036 | 46 | 351 | 1.7 | 7.8 | 0.00 | 0.00 | 0.00 | 76 | 1019.5 |
| 20260506105519 | 46 | 319 | 0.9 | 4.3 | 0.00 | 0.00 | 0.00 | 77 | 1019.5 |
| 20260506105014 | 46 | 310 | 1.7 | 4.3 | 0.00 | 0.00 | 0.00 | 77 | 1019.5 |
| 20260506104546 | 46 | 310 | 1.7 | 5.2 | 0.00 | 0.00 | 0.00 | 77 | 1019.4 |
| 20260506104011 | 46 | 311 | 2.6 | 7.0 | 0.00 | 0.00 | 0.00 | 76 | 1019.3 |
| 20260506103517 | 46 | 305 | 2.6 | 7.0 | 0.00 | 0.00 | 0.00 | 77 | 1019.3 |
| 20260506103034 | 46 | 313 | 2.6 | 7.0 | 0.00 | 0.00 | 0.00 | 77 | 1019.3 |
| 20260506102515 | 46 | 311 | 1.7 | 3.5 | 0.00 | 0.00 | 0.00 | 77 | 1019.4 |
| 20260506102013 | 46 | 323 | 1.7 | 7.0 | 0.00 | 0.00 | 0.00 | 77 | 1019.3 |
| 20260506101545 | 46 | 319 | 2.6 | 7.0 | 0.00 | 0.00 | 0.00 | 77 | 1019.4 |
| 20260506101011 | 46 | 313 | 2.6 | 7.8 | 0.00 | 0.00 | 0.00 | 77 | 1019.4 |
| 20260506100512 | 46 | 315 | 2.6 | 7.8 | 0.00 | 0.00 | 0.00 | 78 | 1019.4 |
| 20260506100046 | 46 | 313 | 2.6 | 7.0 | 0.00 | 0.00 | 0.00 | 78 | 1019.3 |
| 20260506095513 | 46 | 294 | 2.6 | 5.2 | 0.00 | 0.00 | 0.00 | 78 | 1019.4 |
| 20260506095013 | 46 | 311 | 1.7 | 5.2 | 0.00 | 0.00 | 0.00 | 78 | 1019.3 |
| 20260506094549 | 45 | 320 | 2.6 | 5.2 | 0.00 | 0.00 | 0.00 | 78 | 1019.3 |
| 20260506094012 | 45 | 315 | 1.7 | 7.0 | 0.00 | 0.00 | 0.00 | 78 | 1019.2 |
| 20260506093515 | 46 | 315 | 1.7 | 7.0 | 0.00 | 0.00 | 0.00 | 78 | 1019.1 |
| 20260506093042 | 46 | 324 | 1.7 | 5.2 | 0.00 | 0.00 | 0.00 | 77 | 1019.2 |
| 20260506092520 | 46 | 311 | 2.6 | 7.0 | 0.00 | 0.00 | 0.00 | 77 | 1019.2 |
| 20260506092016 | 46 | 307 | 2.6 | 7.0 | 0.00 | 0.00 | 0.00 | 77 | 1019.1 |
| 20260506091541 | 46 | 318 | 1.7 | 4.3 | 0.00 | 0.00 | 0.00 | 77 | 1019.0 |
| 20260506091013 | 46 | 321 | 2.6 | 5.2 | 0.00 | 0.00 | 0.00 | 76 | 1019.1 |
| 20260506090515 | 46 | 321 | 2.6 | 5.2 | 0.00 | 0.00 | 0.00 | 76 | 1018.9 |
| 20260506090048 | 46 | 331 | 2.6 | 5.2 | 0.00 | 0.00 | 0.00 | 75 | 1018.9 |
| 20260506085515 | 46 | 315 | 1.7 | 6.1 | 0.00 | 0.00 | 0.00 | 75 | 1018.9 |
| 20260506085012 | 46 | 307 | 2.6 | 7.8 | 0.00 | 0.00 | 0.00 | 75 | 1018.9 |
| 20260506084543 | 46 | 324 | 2.6 | 7.8 | 0.00 | 0.00 | 0.00 | 75 | 1018.9 |
| 20260506084015 | 46 | 306 | 2.6 | 7.8 | 0.00 | 0.00 | 0.00 | 75 | 1018.9 |
| 20260506083513 | 46 | 323 | 2.6 | 9.6 | 0.00 | 0.00 | 0.00 | 74 | 1018.9 |
| 20260506083049 | 46 | 311 | 3.5 | 9.6 | 0.00 | 0.00 | 0.00 | 74 | 1018.8 |
| 20260506082515 | 46 | 328 | 3.5 | 11.3 | 0.00 | 0.00 | 0.00 | 74 | 1018.9 |
| 20260506082017 | 46 | 322 | 3.5 | 11.3 | 0.00 | 0.00 | 0.00 | 74 | 1018.8 |
| 20260506081536 | 46 | 310 | 3.5 | 7.8 | 0.00 | 0.00 | 0.00 | 73 | 1018.8 |
| 20260506081015 | 46 | 320 | 3.5 | 7.8 | 0.00 | 0.00 | 0.00 | 74 | 1018.8 |
| 20260506080516 | 46 | 306 | 2.6 | 12.2 | 0.00 | 0.00 | 0.00 | 75 | 1018.8 |
| 20260506073513 | 46 | 311 | 4.3 | 7.0 | 0.00 | 0.00 | 0.00 | 74 | 1018.6 |
| 20260506073053 | 46 | 314 | 3.5 | 7.8 | 0.00 | 0.00 | 0.00 | 74 | 1018.6 |
| 20260506072514 | 47 | 311 | 3.5 | 9.6 | 0.00 | 0.00 | 0.00 | 74 | 1018.6 |
| 20260506072016 | 47 | 311 | 4.3 | 9.6 | 0.00 | 0.00 | 0.00 | 74 | 1018.6 |
| 20260506071556 | 46 | 323 | 3.5 | 8.7 | 0.00 | 0.00 | 0.00 | 74 | 1018.5 |
| 20260506071014 | 46 | 317 | 2.6 | 5.2 | 0.00 | 0.00 | 0.00 | 74 | 1018.6 |
| 20260506070515 | 46 | 313 | 2.6 | 7.8 | 0.00 | 0.00 | 0.00 | 74 | 1018.4 |
| 20260506062515 | 47 | 326 | 3.5 | 10.4 | 0.00 | 0.00 | 0.00 | 71 | 1018.0 |
| 20260506062016 | 47 | 321 | 3.5 | 10.4 | 0.00 | 0.00 | 0.00 | 71 | 1018.0 |
| 20260506061549 | 47 | 316 | 4.3 | 12.2 | 0.00 | 0.00 | 0.00 | 69 | 1017.9 |
| 20260506061019 | 47 | 318 | 4.3 | 13.0 | 0.00 | 0.00 | 0.00 | 69 | 1018.0 |
| 20260506060518 | 47 | 329 | 6.1 | 13.0 | 0.00 | 0.00 | 0.00 | 68 | 1017.9 |
| 20260506051017 | 48 | 315 | 6.1 | 9.6 | 0.00 | 0.00 | 0.00 | 71 | 1017.8 |
| 20260506050518 | 48 | 313 | 5.2 | 11.3 | 0.00 | 0.00 | 0.00 | 71 | 1017.9 |
| 20260506045017 | 48 | 305 | 3.5 | 7.8 | 0.00 | 0.00 | 0.00 | 73 | 1017.8 |
| 20260506044552 | 48 | 309 | 5.2 | 9.6 | 0.00 | 0.00 | 0.00 | 72 | 1017.7 |
| 20260506044022 | 48 | 301 | 6.1 | 9.6 | 0.00 | 0.00 | 0.00 | 72 | 1017.7 |
| 20260506043512 | 48 | 300 | 5.2 | 8.7 | 0.00 | 0.00 | 0.00 | 72 | 1017.6 |
| 20260506043027 | 48 | 284 | 6.1 | 9.6 | 0.00 | 0.00 | 0.00 | 72 | 1017.6 |
| 20260506042515 | 48 | 288 | 5.2 | 8.7 | 0.00 | 0.00 | 0.00 | 72 | 1017.4 |
| 20260506042009 | 48 | 296 | 6.1 | 8.7 | 0.00 | 0.00 | 0.00 | 71 | 1017.4 |
| 20260506041528 | 48 | 308 | 5.2 | 8.7 | 0.00 | 0.00 | 0.00 | 71 | 1017.2 |
| 20260506041011 | 48 | 278 | 4.3 | 10.4 | 0.00 | 0.00 | 0.00 | 71 | 1017.1 |
| 20260506040515 | 48 | 282 | 6.1 | 10.4 | 0.00 | 0.00 | 0.00 | 71 | 1017.0 |
| 20260506040029 | 48 | 287 | 5.2 | 12.2 | 0.00 | 0.00 | 0.00 | 71 | 1016.7 |
| 20260506035514 | 49 | 280 | 5.2 | 12.2 | 0.00 | 0.00 | 0.00 | 71 | 1016.6 |
| 20260506035011 | 49 | 309 | 6.1 | 9.6 | 0.00 | 0.00 | 0.00 | 70 | 1016.5 |
| 20260506034528 | 49 | 289 | 6.1 | 9.6 | 0.00 | 0.00 | 0.00 | 70 | 1016.3 |
| 20260506034011 | 49 | 285 | 3.5 | 7.0 | 0.00 | 0.00 | 0.00 | 70 | 1016.4 |
| 20260506033509 | 49 | 281 | 4.3 | 8.7 | 0.00 | 0.00 | 0.00 | 71 | 1016.3 |
| 20260506033033 | 50 | 292 | 4.3 | 8.7 | 0.00 | 0.00 | 0.00 | 70 | 1016.3 |
| 20260506032512 | 50 | 274 | 3.5 | 7.8 | 0.00 | 0.00 | 0.00 | 68 | 1016.2 |
| 20260506032011 | 50 | 290 | 3.5 | 7.8 | 0.00 | 0.00 | 0.00 | 68 | 1016.3 |
| 20260506031532 | 50 | 304 | 2.6 | 6.1 | 0.00 | 0.00 | 0.00 | 68 | 1016.3 |
| 20260506031009 | 51 | 282 | 3.5 | 7.8 | 0.00 | 0.00 | 0.00 | 68 | 1016.4 |
| 20260506030511 | 51 | 296 | 3.5 | 7.8 | 0.00 | 0.00 | 0.00 | 66 | 1016.2 |
| 20260506030050 | 52 | 290 | 4.3 | 7.0 | 0.00 | 0.00 | 0.00 | 65 | 1016.1 |
| 20260506025511 | 52 | 296 | 2.6 | 6.1 | 0.00 | 0.00 | 0.00 | 65 | 1016.0 |
| 20260506025012 | 52 | 286 | 2.6 | 5.2 | 0.00 | 0.00 | 0.00 | 66 | 1016.1 |